Mitilini current weather conditions

sailwx.info

Air temperature 26.0° C
Dewpoint 14.0° C

Last reported at 2015-Aug-31 19:50 UTC.
Time now 2015-Aug-31 21:50 UTC

Location: N 39°03' E 026°36'.
View on Google Maps.

See reports from other nearby stations

  
Tides and Currents Weather Stations Pressure Air Temp Water Temp Dewpoint Dewpoint Depression Visibility Wind Speed Wind Dir Waves Ship Positions
date/time (UTC)wind fromknots sea level pressurealtimeterstation pressurevisibilityair tempwater tempwave heightnotes
2015-Aug-31 19:50 26.0
2015-Aug-31 19:20 27.0
2015-Aug-31 18:50 27.0
2015-Aug-31 18:20 28.0
2015-Aug-31 17:50 320 5 28.0
2015-Aug-31 17:20 29.0
2015-Aug-31 16:50 270 5 30.0
2015-Aug-31 16:20 290 6 29.0
2015-Aug-31 15:50 330 4 30.0
2015-Aug-31 15:20 320 6 32.0
2015-Aug-31 14:50 320 8 33.0
2015-Aug-31 14:20 320 9 33.0
2015-Aug-31 13:50 310 9 33.0
2015-Aug-31 13:20 320 9 33.0
2015-Aug-31 12:50 320 9 32.0
2015-Aug-31 12:20 320 7 31.0
2015-Aug-31 11:50 330 6 31.0
2015-Aug-31 11:20 340 5 30.0
2015-Aug-31 10:50 340 5 30.0
2015-Aug-31 10:20 320 7 31.0
2015-Aug-31 09:50 320 7 31.0
2015-Aug-31 09:20 320 7 31.0
2015-Aug-31 08:50 320 8 30.0
2015-Aug-31 08:20 320 6 28.0
2015-Aug-31 07:50 310 3 27.0
2015-Aug-31 07:20 26.0
2015-Aug-31 06:50 26.0
2015-Aug-31 06:20 26.0
2015-Aug-31 05:50 25.0
2015-Aug-31 05:20 24.0
2015-Aug-31 04:50 23.0
2015-Aug-31 04:20 230 2 22.0
2015-Aug-31 03:50 22.0
2015-Aug-31 03:20 23.0
2015-Aug-31 02:50 23.0
2015-Aug-31 02:20 23.0
2015-Aug-31 01:50 290 2 24.0
2015-Aug-30 19:50 310 8 27.0
2015-Aug-30 19:20 320 4 27.0
2015-Aug-30 18:50 27.0
2015-Aug-30 18:20 300 3 27.0
2015-Aug-30 17:50 320 4 27.0
2015-Aug-30 17:20 350 5 27.0
2015-Aug-30 16:50 320 6 28.0
2015-Aug-30 16:20 340 5 28.0
2015-Aug-30 15:50 330 5 29.0
2015-Aug-30 15:20 330 6 30.0
2015-Aug-30 14:50 340 6 30.0
2015-Aug-30 14:20 350 6 32.0
2015-Aug-30 13:50 310 9 32.0
2015-Aug-30 13:20 320 8 31.0
2015-Aug-30 12:50 330 7 31.0
2015-Aug-30 12:20 340 5 32.0
2015-Aug-30 11:50 330 7 32.0
2015-Aug-30 11:20 320 9 32.0
2015-Aug-30 10:50 320 7 31.0
2015-Aug-30 10:20 330 8 30.0
2015-Aug-30 09:50 330 8 30.0
2015-Aug-30 09:20 340 8 30.0
2015-Aug-30 08:50 330 7 30.0
2015-Aug-30 08:20 340 6 29.0
2015-Aug-30 07:50 360 5 28.0
2015-Aug-30 07:20 360 5 27.0
2015-Aug-30 06:50 030 5 27.0
2015-Aug-30 06:20 340 6 26.0
2015-Aug-30 05:50 320 8 26.0
2015-Aug-30 05:20 330 9 26.0
2015-Aug-30 04:50 330 9 25.0
2015-Aug-30 04:20 330 12 24.0
2015-Aug-30 03:50 330 12 24.0
2015-Aug-30 03:20 340 11 24.0
2015-Aug-30 02:50 340 10 24.0
2015-Aug-30 01:50 330 11 24.0